Temperature
17 17 17 17 17 17 17 17 17 17 17 17 16 16 16 15 16 15 15 15 15 15 15 15 15 15 14 14 14 14 14 14 14 13 13 13 13 13
17 17 17 17 17 17 17 17 17 17 17 17 16 16 15 15 15 15 15 15 15 15 15 15 15 14 14 14 14 14 14 14 13 13 13 13 13 13
17 16 17 17 16 16 16 16 16 16 16 16 16 16 15 15 15 15 15 15 15 15 15 15 14 14 14 14 14 14 14 13 13 13 13 13 13 13
16 16 16 16 16 16 16 16 16 16 16 16 16 16 15 15 15 15 14 14 14 15 14 14 14 14 14 14 14 13 13 13 13 13 13 13 13 13
16 16 16 16 16 16 16 16 16 16 16 15 15 15 15 15 15 15 14 14 14 14 14 14 14 14 14 13 13 13 13 13 13 13 13 12 12 12
16 16 16 16 16 16 16 16 16 16 15 15 15 15 15 15 15 14 14 14 14 14 14 14 14 14 14 13 13 13 13 13 13 13 13 12 12 12
16 16 16 16 16 16 16 16 15 15 15 15 15 15 15 15 14 14 14 14 14 14 14 14 14 14 14 14 13 13 13 13 13 13 12 12 12 12
16 16 16 16 16 16 16 16 15 15 15 15 15 15 14 14 14 14 14 14 13 14 13 13 13 13 13 14 14 13 13 13 13 12 12 12 12 12
16 16 16 16 16 16 16 16 15 15 15 15 15 15 15 14 14 14 14 13 13 13 13 13 13 13 13 13 13 13 13 13 12 12 12 12 12 12
16 16 16 16 15 15 15 15 15 15 15 15 15 15 14 14 14 14 14 13 13 13 13 13 13 13 13 13 13 13 13 13 12 12 12 12 11 11
15 15 15 15 15 15 15 15 15 15 15 15 15 15 15 14 14 13 13 13 13 13 13 13 13 13 13 13 13 13 13 12 12 12 12 11 11 11
15 15 15 15 15 15 15 15 15 15 14 14 14 14 14 14 14 13 13 13 13 13 13 13 13 13 13 13 12 12 12 12 12 12 11 11 11 11
15 15 15 15 15 15 14 14 14 14 14 14 14 14 14 13 13 13 13 13 13 13 13 12 12 12 13 13 12 12 12 12 12 12 11 11 11 11
14 14 14 14 14 14 14 14 14 14 14 13 13 13 13 13 13 13 13 13 13 13 13 12 12 12 12 12 12 12 12 11 11 11 11 11 11 10
14 14 14 14 14 14 14 14 14 13 13 13 13 13 13 13 13 12 12 12 12 12 12 12 12 12 12 12 12 12 12 11 11 11 11 11 11 10
13 14 14 14 13 13 13 13 13 13 13 13 13 13 12 12 12 12 12 12 12 12 12 12 12 11 11 11 11 12 11 11 11 11 11 11 10 10
13 13 13 13 13 13 12 12 12 12 12 12 12 12 12 12 12 12 12 12 12 12 12 12 11 11 11 11 11 11 11 11 11 11 10 10 10 10
12 12 12 12 12 12 12 12 12 12 12 12 12 12 12 12 11 11 11 11 11 11 11 11 11 11 11 11 11 11 11 11 11 10 10 10 10 10
12 12 12 11 11 11 11 11 11 11 11 11 11 11 11 11 11 11 11 11 11 11 11 11 11 10 10 11 11 11 10 10 10 10 10 10 10 10
12 12 11 11 11 11 11 11 11 11 11 11 11 11 11 11 11 11 11 11 11 11 11 11 10 10 10 10 10 10 10 10 10 10 10 10 10 10
11 11 11 11 11 11 10 10 10 11 10 10 10 10 10 10 10 11 11 10 10 10 10 10 10 10 10 9 10 10 10 10 9 9 9 9 9 9
10 10 10 10 10 10 10 10 10 10 10 10 10 10 10 10 10 10 10 10 10 10 10 10 10 9 9 9 9 10 10 9 9 9 9 9 9 9
10 10 10 10 9 9 9 9 9 10 10 10 10 9 10 10 10 10 10 10 10 10 10 9 9 9 9 9 9 9 9 9 9 9 9 9 9 9
Wind_Speed
6 7 6 5 5 5 5 5 5 5 4 4 4 4 4 4 6 6 6 8 9 9 9 9 8 8 8 7 6 6 5 5 5 5 5 4 4 4
5 5 6 6 5 6 6 5 6 6 5 2 3 3 4 4 6 6 6 8 10 11 10 9 9 9 9 8 7 7 6 6 6 6 6 6 5 5
6 6 7 7 6 5 5 6 6 6 6 4 3 3 4 5 5 6 6 7 7 11 11 11 10 10 10 10 9 8 7 7 6 6 6 6 6 6
7 7 7 6 6 6 6 6 5 5 6 6 4 4 5 6 5 6 6 6 6 9 12 12 12 11 11 11 10 10 9 8 7 7 6 6 6 6
7 7 7 7 7 6 6 6 6 6 6 6 6 4 5 5 6 6 7 6 7 8 11 12 13 13 12 12 12 11 11 10 9 9 8 8 7 7
7 7 7 7 8 8 7 7 7 6 6 7 6 5 5 5 5 6 6 6 6 6 7 9 12 14 15 15 14 13 12 12 11 11 10 10 9 9
7 7 7 6 6 7 7 6 6 6 6 6 6 5 5 5 6 6 6 6 6 6 6 7 8 9 11 15 16 14 14 14 13 13 12 11 11 10
7 7 7 6 7 7 7 6 6 7 7 7 6 6 7 7 6 6 6 6 6 5 7 7 8 8 9 11 13 16 16 15 15 14 13 13 13 12
7 7 6 5 6 6 7 8 8 8 8 9 9 9 8 8 8 9 8 8 8 5 6 8 8 9 9 10 14 17 17 17 16 16 15 15 15 14
7 7 7 7 6 6 7 8 9 9 10 10 10 10 9 7 8 9 9 9 9 8 8 9 8 9 9 9 14 18 19 18 18 18 17 17 16 16
7 7 7 7 5 5 8 8 9 9 9 10 10 9 7 8 8 7 8 8 9 9 8 8 8 8 9 9 11 18 19 20 20 19 19 18 17 16
6 6 6 6 5 6 9 9 10 9 8 8 9 10 11 11 12 11 10 10 9 8 7 8 8 7 7 8 8 10 13 17 20 20 20 19 18 13
6 6 5 5 6 7 9 9 9 9 9 9 8 8 9 8 9 10 10 10 10 10 7 8 8 9 8 7 7 8 9 9 12 15 18 20 20 16
6 6 4 3 6 8 8 7 8 8 8 8 8 8 8 8 8 9 10 12 11 11 9 8 8 8 9 9 7 7 8 9 9 10 10 14 18 21
6 5 5 5 6 7 8 9 8 7 7 7 8 8 7 7 7 7 9 10 12 12 11 11 10 9 9 10 9 7 7 8 9 9 9 10 10 11
6 5 7 9 8 6 6 6 6 6 7 7 8 7 6 6 7 7 8 8 8 9 9 11 11 10 10 10 9 8 8 7 8 9 9 9 10 11
4 5 5 4 4 4 5 5 5 6 7 7 7 7 7 7 7 7 7 7 8 9 8 7 9 9 10 9 9 9 9 9 8 7 8 9 9 10
4 4 5 5 5 5 5 5 5 6 6 6 7 7 7 7 7 6 7 8 9 9 8 7 6 6 7 8 9 10 9 8 8 7 9 10 10 9
3 4 5 5 6 6 5 5 5 5 5 6 7 7 7 7 7 7 7 8 8 8 8 7 7 8 9 10 8 10 9 8 8 8 9 9 10 9
4 4 5 5 6 6 6 5 5 5 5 5 6 6 6 7 7 7 8 8 8 9 9 8 8 8 10 10 8 7 12 10 8 8 8 8 8 5
4 4 5 6 6 6 6 6 6 6 6 6 6 6 6 7 7 7 8 8 9 9 9 9 7 8 8 7 8 8 7 10 9 8 8 8 8 8
5 5 5 6 6 6 6 6 6 6 7 7 6 6 7 7 8 9 8 8 8 8 9 8 6 7 8 9 11 10 9 7 9 12 11 9 8 8
5 6 6 6 6 6 6 6 7 7 6 7 7 7 7 7 8 8 8 9 8 8 8 7 6 7 8 9 10 9 10 8 7 8 8 10 12 10
Wind_Direction
238 234 240 241 242 245 242 243 253 258 248 217 210 202 198 188 173 200 199 184 193 199 203 203 203 205 205 204 205 206 211 222 230 239 244 244 236 238
250 255 253 249 243 241 246 247 250 262 264 237 213 198 189 189 181 203 200 181 194 200 203 206 207 206 206 206 207 209 214 220 228 235 240 242 235 236
242 243 246 256 253 248 244 245 243 247 253 254 231 199 197 208 191 208 212 213 204 195 204 208 210 211 211 211 212 215 217 221 225 228 232 234 232 230
240 246 251 246 244 254 250 246 243 242 248 246 236 216 211 209 204 217 218 221 220 191 199 209 212 212 214 215 217 218 220 224 226 229 229 230 230 228
243 243 247 247 246 245 248 249 246 239 240 241 235 222 221 212 210 221 225 228 227 199 198 206 209 212 215 218 220 222 223 226 228 227 227 228 227 225
248 245 244 245 246 245 242 245 249 247 238 240 236 227 222 209 218 225 227 224 229 219 208 210 210 214 217 219 220 222 225 227 229 229 228 227 225 225
248 248 247 248 258 256 258 247 242 244 239 238 237 235 231 216 225 229 236 235 231 228 226 221 212 216 213 217 219 221 225 227 227 228 228 226 225 224
249 248 244 236 233 233 251 258 256 246 245 245 241 239 237 233 232 235 235 237 242 222 231 237 226 227 222 222 206 209 218 221 223 225 226 224 223 224
250 250 254 241 228 237 223 224 238 246 251 253 255 252 246 235 232 234 233 239 249 238 233 243 234 237 235 224 195 203 212 218 222 224 225 224 224 225
250 247 250 253 245 242 237 234 238 234 232 237 248 254 254 245 234 239 244 243 246 241 230 247 244 242 241 229 197 202 209 216 221 223 224 225 226 228
249 247 249 248 231 234 240 241 244 243 227 224 236 242 246 240 237 241 238 239 247 243 227 242 249 245 241 235 210 200 209 213 217 221 223 224 224 227
249 245 236 246 230 223 238 241 244 246 247 236 232 233 235 230 221 231 236 240 246 247 224 230 244 241 245 233 222 209 211 214 216 220 222 222 219 226
264 260 253 201 221 231 245 250 251 258 252 245 239 237 235 233 229 227 234 240 244 246 233 220 241 239 245 245 233 222 218 220 219 224 222 219 215 220
267 271 276 206 228 237 243 251 258 259 253 248 245 242 239 238 237 234 234 239 247 254 251 236 245 245 247 251 248 232 226 226 223 225 223 211 215 221
275 295 291 256 243 240 231 234 241 247 250 250 250 249 247 244 242 239 236 237 243 247 243 235 242 246 247 252 252 244 237 233 227 226 223 217 218 221
272 264 239 240 243 252 246 235 240 246 248 251 254 256 256 249 242 240 242 239 243 244 240 238 241 248 248 250 250 247 241 237 227 225 226 227 224 224
280 276 279 273 267 261 257 252 245 242 245 251 254 252 251 250 248 245 244 246 246 248 246 239 234 241 251 251 249 246 241 241 236 225 227 233 231 228
267 272 276 275 274 276 272 260 252 250 253 255 254 254 254 252 251 248 245 246 247 249 249 244 237 239 248 248 238 247 246 243 240 228 231 235 235 229
257 273 275 277 278 278 276 271 267 263 258 258 256 254 254 254 253 252 249 248 251 251 249 242 236 237 246 254 238 220 243 248 240 234 232 236 241 235
271 275 278 279 281 285 286 286 283 280 268 266 264 260 257 256 256 254 252 253 256 257 253 246 238 238 247 257 264 249 220 234 240 240 241 243 245 242
285 286 286 289 289 290 292 289 285 282 280 274 270 270 264 258 257 257 256 248 252 257 255 253 245 234 249 256 260 258 241 220 231 242 244 243 243 240
298 295 295 296 296 294 293 292 288 284 280 274 273 270 267 265 262 260 260 258 254 255 260 261 253 240 241 245 251 257 254 240 230 232 239 244 247 246
309 308 306 305 306 305 303 303 301 296 291 289 284 275 271 268 266 264 261 259 258 259 259 259 257 250 248 247 251 255 252 244 236 233 239 228 229 237
Height
1547 1547 1548 1548 1549 1549 1549 1550 1550 1549 1549 1549 1549 1549 1549 1549 1549 1550 1550 1550 1550 1550 1550 1550 1550 1550 1549 1549 1549 1548 1548 1548 1548 1548 1548 1548 1548 1548
1544 1544 1545 1546 1546 1546 1546 1546 1547 1547 1546 1546 1546 1546 1546 1546 1546 1547 1547 1547 1547 1547 1547 1547 1546 1546 1546 1546 1546 1546 1545 1545 1545 1545 1545 1545 1545 1545
1542 1542 1542 1542 1542 1543 1543 1543 1543 1543 1543 1543 1543 1543 1542 1543 1543 1543 1544 1543 1543 1543 1543 1543 1543 1543 1543 1542 1542 1542 1542 1542 1542 1542 1542 1542 1542 1541
1539 1539 1539 1539 1539 1539 1539 1539 1539 1539 1540 1539 1539 1539 1539 1539 1539 1540 1541 1541 1540 1539 1539 1539 1539 1539 1539 1539 1539 1539 1539 1539 1539 1539 1539 1539 1539 1539
1536 1536 1536 1536 1536 1536 1535 1536 1536 1536 1536 1536 1536 1536 1536 1536 1536 1537 1537 1537 1537 1536 1535 1535 1535 1535 1536 1536 1535 1535 1535 1535 1535 1535 1535 1535 1535 1535
1532 1532 1532 1532 1532 1532 1532 1532 1532 1532 1532 1533 1533 1533 1533 1532 1533 1533 1534 1533 1533 1533 1532 1531 1531 1531 1531 1531 1531 1531 1531 1531 1531 1531 1531 1531 1531 1531
1528 1528 1528 1528 1528 1528 1529 1529 1528 1528 1529 1529 1530 1530 1530 1529 1529 1529 1530 1530 1529 1529 1528 1528 1527 1527 1527 1527 1527 1527 1527 1527 1527 1527 1527 1527 1527 1528
1524 1524 1525 1524 1524 1524 1524 1524 1524 1524 1525 1526 1526 1526 1526 1526 1526 1526 1526 1526 1525 1525 1524 1524 1524 1523 1523 1522 1522 1522 1522 1522 1523 1523 1523 1523 1523 1523
1520 1520 1521 1521 1520 1520 1520 1520 1520 1519 1520 1521 1522 1521 1521 1521 1521 1521 1521 1521 1521 1521 1520 1520 1519 1519 1518 1518 1517 1517 1517 1518 1518 1518 1518 1518 1518 1519
1516 1516 1517 1516 1516 1516 1515 1515 1515 1515 1515 1515 1516 1516 1517 1516 1516 1516 1516 1516 1515 1516 1515 1515 1514 1514 1514 1513 1512 1512 1512 1512 1513 1513 1513 1513 1514 1514
1512 1512 1512 1511 1511 1511 1511 1510 1509 1509 1510 1509 1510 1510 1510 1510 1511 1511 1511 1511 1510 1510 1510 1510 1509 1509 1508 1508 1507 1506 1506 1507 1507 1508 1508 1509 1509 1509
1508 1507 1506 1507 1506 1506 1505 1505 1504 1504 1505 1504 1504 1504 1504 1504 1504 1504 1505 1505 1505 1505 1504 1504 1504 1504 1503 1502 1502 1501 1501 1501 1501 1502 1503 1503 1504 1504
1504 1503 1502 1501 1501 1500 1500 1499 1499 1499 1499 1499 1499 1499 1499 1499 1498 1498 1498 1499 1499 1499 1499 1498 1498 1499 1498 1497 1497 1496 1496 1496 1496 1496 1497 1497 1498 1498
1499 1499 1498 1496 1495 1495 1494 1494 1494 1494 1494 1494 1494 1493 1493 1493 1493 1492 1492 1492 1492 1493 1493 1493 1492 1492 1493 1492 1491 1490 1490 1490 1490 1490 1490 1491 1491 1492
1494 1493 1492 1491 1490 1490 1489 1488 1488 1489 1489 1488 1488 1487 1487 1487 1487 1487 1486 1486 1486 1486 1486 1486 1486 1486 1486 1486 1485 1485 1485 1484 1484 1484 1484 1484 1484 1485
1490 1489 1488 1487 1486 1485 1484 1483 1483 1483 1483 1483 1482 1482 1482 1482 1481 1481 1481 1480 1480 1479 1479 1479 1478 1479 1479 1479 1479 1478 1478 1478 1478 1478 1478 1478 1478 1479
1485 1485 1484 1484 1483 1482 1480 1479 1478 1478 1477 1477 1476 1476 1476 1476 1476 1475 1475 1474 1474 1473 1473 1473 1472 1472 1472 1472 1472 1471 1472 1472 1472 1472 1472 1472 1472 1473
1481 1480 1480 1480 1479 1478 1477 1475 1474 1473 1472 1472 1471 1471 1470 1470 1470 1470 1469 1468 1468 1468 1467 1467 1467 1467 1466 1465 1466 1465 1466 1465 1466 1466 1466 1466 1466 1466
1477 1477 1477 1477 1476 1475 1473 1472 1470 1469 1467 1466 1466 1465 1465 1464 1464 1463 1463 1462 1462 1462 1462 1461 1461 1461 1460 1459 1458 1459 1459 1459 1460 1460 1459 1459 1460 1460
1475 1474 1474 1473 1472 1471 1470 1468 1467 1465 1463 1462 1461 1460 1459 1458 1458 1457 1457 1456 1456 1456 1456 1456 1455 1455 1454 1454 1454 1453 1453 1453 1453 1453 1453 1453 1454 1455
1472 1471 1471 1470 1469 1467 1466 1464 1463 1461 1459 1458 1457 1455 1454 1453 1452 1452 1451 1450 1450 1450 1450 1449 1449 1449 1449 1450 1449 1447 1447 1447 1447 1447 1447 1448 1448 1448
1470 1469 1468 1466 1465 1464 1462 1460 1459 1457 1455 1454 1453 1451 1450 1448 1447 1446 1446 1445 1444 1444 1444 1444 1444 1444 1443 1442 1442 1441 1441 1441 1440 1441 1441 1441 1441 1441
1466 1465 1464 1463 1461 1460 1458 1457 1455 1454 1452 1450 1448 1447 1445 1443 1442 1441 1440 1439 1439 1438 1438 1438 1438 1438 1437 1436 1436 1435 1435 1435 1434 1434 1434 1434 1435 1435